Miscellaneous Local Product
Issued by NWS Hastings, NE

Home | Current Version | Previous Version | Graphics & Text | Print | Product List | Glossary On
Versions: 1 2 3 4 5 6 7 8 9 10 11 12 13 14 15 16 17 18 19 20 21 22 23 24 25 26 27 28 29 30 31 32 33 34 35 36 37 38 39 40 41 42 43 44 45 46 47 48 49 50
000
AXUS43 KGID 170102
MISGRI

GID CWA HOURLY WEATHER ROUNDUP
NATIONAL WEATHER SERVICE HASTINGS NE
800 PM CDT TUE SEP 16 2014

NOTE: "FAIR" INDICATES FEW OR NO CLOUDS BELOW 12,000 FEET WITH NO
SIGNIFICANT WEATHER AND/OR OBSTRUCTIONS TO VISIBILITY.

...SOUTH CENTRAL NEBRASKA...

CITY           SKY/WX    TMP DP  RH WIND       PRES   REMARKS
GRAND ISLAND   CLOUDY    64  54  69 SE7       30.01F
HASTINGS       PTCLDY    62  52  69 SE7       30.01S
KEARNEY        PTCLDY    61  54  77 SE7       30.00F
ORD            PTCLDY    62  55  77 SE7       29.97F
YORK           CLOUDY    63  55  77 SW3       30.02S
LEXINGTON      PTCLDY    65  59  80 SE7       29.97F
HOLDREGE       PTCLDY    61  56  84 CALM      29.98F
HEBRON         CLOUDY    65  53  65 CALM      30.02R

...NEBRASKA PANHANDLE...

CITY           SKY/WX    TMP DP  RH WIND       PRES   REMARKS
CHADRON        CLEAR     72  52  49 SE6       29.92F
ALLIANCE       CLEAR     66  46  48 SE9       29.98S
SCOTTSBLUFF    CLEAR     77  45  32 SE6       29.98S
SIDNEY         CLEAR     71  45  39 E8        30.04S

...WESTERN AND NORTH CENTRAL NEBRASKA...

CITY           SKY/WX    TMP DP  RH WIND       PRES   REMARKS
VALENTINE      PTCLDY    71  55  56 NE3       29.93F
ONEILL         CLEAR     63  57  81 S6        29.97S
BROKEN BOW     CLEAR     63  57  81 S7        29.98S
IMPERIAL       CLEAR     73  54  51 NW7       29.98S
NORTH PLATTE   CLEAR     63  59  87 E7        29.96S
MCCOOK         CLEAR     71  60  68 E9        29.96R

...EASTERN NEBRASKA...

CITY           SKY/WX    TMP DP  RH WIND       PRES   REMARKS
NORFOLK        CLOUDY    65  51  60 SE8       30.00R
SO SIOUX CITY  PTCLDY    58  51  78 S3        30.02R
TEKAMAH        MOCLDY    61  52  72 SE7       30.01F
ALBION         CLOUDY    63  54  73 S5        29.99F
OMAHA EPPLEY   MOCLDY    65  50  58 SE9       30.02F
OFFUTT AFB     CLOUDY    63  55  75 SE6       30.02S
MILLARD        CLOUDY    64  52  63 SE5       30.02S
LINCOLN        CLOUDY    66  52  60 S7        30.02S
NEBRASKA CITY  CLOUDY    64  45  50 SE5       30.03S
BEATRICE       CLOUDY    67  51  57 S5        30.02R
FALLS CITY     CLOUDY    64  54  69 SE3       30.02S

...NORTHERN KANSAS...

CITY           SKY/WX    TMP DP  RH WIND       PRES   REMARKS
GOODLAND       CLEAR     76  54  46 N3        30.01R
HILL CITY      CLEAR     72  62  71 E8        29.95F
NORTON         CLEAR     68  57  68 E8        29.96S
PHILLIPSBURG   CLEAR     66  57  72 E8        29.97F
SMITH CENTER   CLEAR     64  55  72 E7        29.99S
BELOIT         CLEAR     66  55  68 E5        29.98S
HAYS           PTCLDY    73  63  68 SE10      29.95F
RUSSELL        CLEAR     70  62  76 SE9       29.95F
CONCORDIA      PTCLDY    64  56  75 CALM      30.00S
SALINA         CLEAR     71  61  70 SE8       29.98F
TOPEKA         CLEAR     67  56  67 E5        30.02S



USA.gov is the U.S. government's official web portal to all federal, state and local government web resources and services.